Flag for India Weather past 2 weeks in Amritsar, Punjab, India

Now
81 °F

Fog.


Feels Like: 88 °F
Forecast: 79 / 88 °F
Wind: 2 mph from North

Location: Amritsar Airport

Current Time: Aug 1, 2015 at 5:37:08 AM

Latest Report: Aug 1, 2015 at 5:00 AM


Visibility: 2 mi

Pressure: 29.50 "Hg

Humidity: 94%

Dew point: 79 °F

Location of AmritsarLocation

Historic Weather in Amritsar — Graph

°F

Amritsar temperature yesterday

Maximum temperature yesterday: 88 °F (at 1:00 PM)
Minimum temperature yesterday: 79 °F (at 6:00 AM)
Average temperature yesterday: 83 °F

Past Weeks' High & Low Weather Summary

 TemperatureHumidityPressure
High95 °F (Jul 23, 3:30 PM)100% (Jul 17, 4:30 AM)29.68 "Hg (Jul 17, 4:30 AM)
Low75 °F (Jul 17, 4:30 AM)59% (Jul 29, 5:30 PM)29.45 "Hg (Jul 17, 4:00 AM)
Average85 °F86%29.55 "Hg
* Reported Jul 17 3:30 AM — Aug 1 4:00 AM, Amritsar, Weather by CustomWeather, © 2015

Note: Actual official high and low records may vary slightly from our data, if they occured in-between our weather recording intervals... More about our weather records

Advertising

Amritsar weather history for previous 24 hours

 ConditionsComfort  
Time TempWeatherWind HumidityBarometerVisibility
4:00 AM
Sat, Aug 1
81 °FFog.2 mph94%29.50 "Hg2 mi
3:30 AM81 °FFog.2 mph94%29.50 "Hg2 mi
3:00 AM81 °FFog.5 mph94%29.50 "Hg2 mi
2:30 AM81 °FFog.5 mph94%29.50 "Hg2 mi
2:00 AM81 °FFog.5 mph94%29.50 "Hg2 mi
1:30 AM82 °FFog.2 mph89%29.53 "Hg2 mi
1:00 AM82 °FFog.5 mph89%29.53 "Hg2 mi
12:30 AM82 °FFog.3 mph94%29.53 "Hg2 mi
12:00 AM82 °FFog.5 mph89%29.53 "Hg2 mi
11:30 PM
Fri, Jul 31
82 °FFog.5 mph89%29.53 "Hg2 mi
11:00 PM82 °FFog.5 mph89%29.53 "Hg2 mi
10:30 PM82 °FFog.6 mph89%29.53 "Hg2 mi
10:00 PM82 °FFog.6 mph89%29.53 "Hg2 mi
8:30 PM82 °FFog.2 mph89%29.50 "Hg2 mi
8:00 PM82 °FFog.2 mph89%29.47 "Hg2 mi
7:30 PM82 °FFog.3 mph94%29.47 "Hg2 mi
7:00 PM84 °FFog.3 mph89%29.47 "Hg2 mi
5:30 PM88 °FBroken clouds.8 mph70%29.45 "Hg2 mi
1:00 PM88 °FFog.10 mph70%29.53 "Hg2 mi
10:00 AM84 °FFog.10 mph79%29.53 "Hg2 mi
9:30 AM84 °FFog.9 mph79%29.53 "Hg2 mi
9:00 AM84 °FFog.8 mph79%29.53 "Hg2 mi
8:30 AM82 °FFog.9 mph84%29.50 "Hg2 mi
7:30 AM81 °FFog.6 mph94%29.50 "Hg2 mi
7:00 AM79 °FFog.5 mph100%29.50 "Hg2 mi
6:30 AM81 °FFog.7 mph89%29.50 "Hg2 mi
6:00 AM79 °FFog.2 mph94%29.50 "Hg2 mi
5:30 AM81 °FFog.5 mph89%29.50 "Hg2 mi
Weather by CustomWeather, © 2015

See weather overviewHow to use our weather pages